TimeMDT,TemperatureF,Dew PointF,Humidity,Sea Level PressureIn,VisibilityMPH,Wind Direction,Wind SpeedMPH,Gust SpeedMPH,PrecipitationIn,Events,Conditions,WindDirDegrees,DateUTC
12:53 AM,55.9,25.0,30,29.82,9.0,SSW,12.7,-,N/A,,Clear,210,2012-10-13 06:53:00
1:53 AM,55.9,25.0,30,29.83,9.0,SSW,15.0,-,N/A,,Clear,210,2012-10-13 07:53:00
2:53 AM,55.0,25.0,31,29.86,8.0,SW,18.4,26.5,N/A,,Clear,230,2012-10-13 08:53:00
3:53 AM,55.0,33.1,43,29.88,6.0,SW,16.1,-,N/A,,Mostly Cloudy,230,2012-10-13 09:53:00
4:53 AM,55.9,37.0,49,29.91,6.0,WSW,15.0,-,N/A,,Mostly Cloudy,240,2012-10-13 10:53:00
5:53 AM,57.0,39.0,51,29.94,5.0,WSW,19.6,-,N/A,,Mostly Cloudy,240,2012-10-13 11:53:00
6:53 AM,55.9,41.0,57,29.99,5.0,WSW,17.3,25.3,N/A,,Overcast,240,2012-10-13 12:53:00
7:53 AM,55.0,41.0,59,30.03,6.0,WSW,15.0,-,N/A,,Overcast,250,2012-10-13 13:53:00
8:53 AM,55.0,42.1,62,30.05,8.0,WSW,19.6,25.3,N/A,,Overcast,240,2012-10-13 14:53:00
9:53 AM,53.1,41.0,64,30.10,10.0,WSW,17.3,-,0.00,,Mostly Cloudy,240,2012-10-13 15:53:00
10:53 AM,57.0,39.0,51,30.10,10.0,WSW,17.3,28.8,N/A,,Overcast,240,2012-10-13 16:53:00
11:53 AM,60.1,39.9,47,30.10,8.0,WSW,23.0,33.4,N/A,,Partly Cloudy,250,2012-10-13 17:53:00
12:53 PM,62.1,39.9,44,30.11,9.0,WSW,27.6,34.5,N/A,,Clear,250,2012-10-13 18:53:00
2:53 PM,66.0,39.0,37,30.09,10.0,West,26.5,35.7,N/A,,Clear,260,2012-10-13 20:53:00
3:53 PM,66.9,37.0,33,30.09,10.0,West,26.5,34.5,N/A,,Clear,260,2012-10-13 21:53:00
4:53 PM,64.9,36.0,34,30.10,10.0,WSW,25.3,35.7,N/A,,Clear,250,2012-10-13 22:53:00
6:53 PM,60.1,37.9,44,30.13,10.0,WSW,18.4,-,N/A,,Clear,250,2012-10-14 00:53:00
8:53 PM,55.0,37.9,53,30.19,10.0,WSW,11.5,-,N/A,,Clear,240,2012-10-14 02:53:00
9:53 PM,54.0,37.9,55,30.20,10.0,SSW,9.2,-,N/A,,Clear,210,2012-10-14 03:53:00
11:53 PM,50.0,37.0,61,30.21,10.0,South,12.7,-,N/A,,Clear,190,2012-10-14 05:53:00